Weather History for KFIG - November, 2012

Change the Weather History Date:

Monday, November 5, 2012

  Actual Average (KDUJ) Record (KDUJ)
Temperature  
Mean Temperature 34 °F 43 °F  
Max Temperature 36 °F 52 °F 69 °F (1975)
Min Temperature 30 °F 35 °F 10 °F (1991)
Degree Days  
Heating Degree Days 31 22  
Month to date heating degree days 107  
Since 1 July heating degree days 850  
Cooling Degree Days 0 0  
Month to date cooling degree days 0  
Year to date cooling degree days 362  
Moisture  
Dew Point 22 °F    
Average Humidity 63    
Maximum Humidity 73    
Minimum Humidity 56    
Precipitation  
Precipitation 0.00 in 0.12 in 0.99 in (1988)
Month to date precipitation 0.60  
Sea Level Pressure  
Sea Level Pressure 30.13 in    
Wind  
Wind Speed 5 mph (NNW)    
Max Wind Speed 12 mph    
Max Gust Speed -    
Visibility 10 miles    
Events      
T = Trace of Precipitation, MM = Missing Value Source: NWS Daily Summary

Daily Weather History Graph

Daily Weather History Graph

Search for Another Location

Airport or City:

Trip Planner

Search our weather history database for the weather conditions in past years. The results will help you decide how hot, cold, wet, or windy it might be!

Date:

Astronomy

Nov. 05, 2012 Rise Set
Actual Time 6:49 AM EST 5:04 PM EST
Civil Twilight 6:20 AM EST 5:32 PM EST
Nautical Twilight 5:48 AM EST 6:05 PM EST
Astronomical Twilight 5:16 AM EST 6:37 PM EST
Moon 10:39 PM EST (11/5) 12:08 PM EST (11/5)
Length of Visible Light 11h 11m
Length of Day
10h 14m
Waning Gibbous, 63% of the Moon is Illuminated
Nov 5
Waning Gibbous
Nov 6
Last Quarter
Nov 13
New
Nov 20
First Quarter
Nov 28
Full

Hourly Weather History & Observations

Time (EST) Temp. Windchill Dew Point Humidity Pressure Visibility Wind Dir Wind Speed Gust Speed Precip Events Conditions
12:54 AM 33.1 °F 28.7 °F 24.1 °F 70% 30.08 in 10.0 mi NNW 4.6 mph - N/A   Overcast
1:54 AM 33.1 °F - 24.1 °F 70% 30.08 in 10.0 mi Calm Calm - N/A   Overcast
2:54 AM 32.0 °F - 24.1 °F 73% 30.08 in 10.0 mi Calm Calm - N/A   Overcast
3:54 AM 33.1 °F 28.7 °F 24.1 °F 70% 30.08 in 10.0 mi NNW 4.6 mph - N/A   Overcast
4:54 AM 33.1 °F 27.7 °F 24.1 °F 70% 30.09 in 10.0 mi NW 5.8 mph - N/A   Overcast
5:54 AM 33.1 °F 24.4 °F 24.1 °F 70% 30.10 in 10.0 mi NNW 11.5 mph - N/A   Overcast
6:54 AM 33.1 °F 30.0 °F 24.1 °F 70% 30.11 in 10.0 mi NNW 3.5 mph - N/A   Overcast
7:54 AM 33.1 °F 30.0 °F 24.1 °F 70% 30.13 in 10.0 mi North 3.5 mph - N/A   Overcast
8:54 AM 34.0 °F 28.8 °F 21.9 °F 61% 30.14 in 10.0 mi North 5.8 mph - N/A   Overcast
9:54 AM 34.0 °F 27.2 °F 23.0 °F 64% 30.14 in 10.0 mi NNW 8.1 mph - N/A   Overcast
10:42 AM 35.6 °F 27.5 °F 21.2 °F 56% 30.10 in 10.0 mi North 11.5 mph - N/A   Overcast
10:54 AM 35.1 °F 28.6 °F 21.9 °F 59% 30.15 in 10.0 mi North 8.1 mph - N/A   Overcast
11:54 AM 36.0 °F 30.3 °F 21.9 °F 57% 30.14 in 10.0 mi NNW 6.9 mph - N/A   Overcast
12:54 PM 36.0 °F 30.3 °F 21.9 °F 57% 30.13 in 10.0 mi NNW 6.9 mph - N/A   Overcast
1:54 PM 36.0 °F 29.6 °F 21.9 °F 57% 30.13 in 10.0 mi NW 8.1 mph - N/A   Overcast
2:54 PM 36.0 °F 30.3 °F 23.0 °F 59% 30.13 in 10.0 mi NNW 6.9 mph - N/A   Overcast
3:54 PM 36.0 °F 31.1 °F 23.0 °F 59% 30.14 in 10.0 mi NW 5.8 mph - N/A   Overcast
4:54 PM 35.1 °F 29.3 °F 21.0 °F 57% 30.14 in 10.0 mi NW 6.9 mph - N/A   Overcast
5:54 PM 34.0 °F 28.0 °F 21.0 °F 59% 30.15 in 10.0 mi NW 6.9 mph - N/A   Overcast
6:54 PM 34.0 °F 31.0 °F 21.0 °F 59% 30.17 in 10.0 mi North 3.5 mph - N/A   Overcast
7:54 PM 34.0 °F 29.8 °F 21.0 °F 59% 30.17 in 10.0 mi North 4.6 mph - N/A   Overcast
8:54 PM 33.1 °F 26.9 °F 21.0 °F 61% 30.19 in 10.0 mi NNE 6.9 mph - N/A   Overcast
9:54 PM 32.0 °F 27.5 °F 19.9 °F 61% 30.20 in 10.0 mi NW 4.6 mph - N/A   Overcast
10:54 PM 32.0 °F - 19.9 °F 61% 30.19 in 10.0 mi Calm Calm - N/A   Overcast
11:54 PM 30.9 °F - 19.9 °F 64% 30.19 in 10.0 mi Calm Calm - N/A   Overcast